Location: Capanna Bullaccia
(46.5500°N, 11.6167°E)
Time: 01:11:26
(UTC+00:00)

Daily predictions for brighter satellites

Satellite Brightness Start Highest point End
(mag) Time Altitude Azimuth Time Altitude Azimuth Time Altitude Azimuth
BREEZE-M R/B 4.4 00:08:25 37° ENE 00:08:25 37° ENE 00:12:27 10° ENE
Meteor 1-11 Rocket 4.4 00:01:19 10° NNW 00:06:15 48° WNW 00:06:15 48° WNW
Resurs 1-4 Rocket 3.2 00:06:46 10° NNE 00:11:25 33° E 00:11:25 33° E
Cosmos 1777 Rocket 4.3 00:13:00 63° N 00:13:00 63° N 00:17:28 10° NNE
Cosmos 1844 Rocket 3.9 00:12:33 30° WNW 00:13:15 31° NW 00:18:12 10° N
Cosmos 2218 Rocket 4.0 00:09:07 10° N 00:15:19 73° E 00:15:47 70° ESE
Helios 1A 4.5 00:21:11 32° NNW 00:21:11 32° NNW 00:23:33 10° NNW
Cosmos 2366 rocket 3.9 00:14:27 10° N 00:20:38 77° E 00:21:03 73° ESE
Cosmos 1733 Rocket 4.1 00:22:18 10° N 00:25:12 41° N 00:25:12 41° N
CZ-4C R/B 3.1 00:23:22 10° NW 00:30:30 71° NE 00:38:50 10° SE
Meteor 1-19 Rocket 4.2 00:32:44 69° ESE 00:32:47 69° E 00:38:15 10° NNE
CZ-2D R/B 2.6 00:27:43 10° NNE 00:33:05 50° E 00:33:21 49° ESE
NOSS 3-3 (A) 3.7 00:35:03 81° S 00:35:17 84° SE 00:41:54 10° NE
NOSS 3-3 (C) 3.7 00:35:10 81° SSE 00:35:23 83° SE 00:42:00 10° NE
Cosmos 2082 Rocket 2.4 00:31:16 10° NNW 00:36:53 65° ENE 00:38:00 53° ESE
SL-16 R/B 2.7 00:36:28 50° SE 00:38:06 71° ENE 00:44:22 10° NNW
Cosmos 1833 Rocket 2.9 00:32:56 10° NNW 00:37:45 59° WNW 00:37:45 59° WNW
ADEOS II 3.5 00:35:47 10° NE 00:40:14 27° E 00:41:22 25° ESE
ATLAS 2AS CENTAUR R/B 4.1 00:33:21 10° NNW 00:40:21 40° NE 00:46:52 10° ESE
Cosmos 1862 Rocket 4.2 00:52:44 50° NNW 00:52:44 50° NNW 00:56:09 10° N
Cosmos 1943 Rocket 3.8 00:51:58 21° SE 00:53:31 24° ESE 00:57:55 10° NE
SJ 16-02 2.1 00:54:21 46° NNW 00:54:21 46° NNW 00:57:56 10° NNE
Okean 1-7 3.7 00:58:39 48° E 00:58:39 48° E 01:02:31 10° NNE
Meteor 1-18 Rocket 4.1 00:59:26 72° SW 00:59:59 80° WNW 01:05:45 10° N
Cosmos 2278 Rocket 2.3 01:01:19 59° W 01:01:50 62° WNW 01:07:29 10° NNE
ATLAS 5 CENTAUR R/B 3.1 01:04:45 10° NW 01:08:34 37° W 01:08:34 37° W
Cosmos 1680 Rocket 3.3 01:08:42 10° NNW 01:14:01 76° WSW 01:14:21 73° SSW
Meteor 2-9 Rocket 4.4 01:08:31 10° NNW 01:14:13 53° W 01:14:25 52° WSW
AQUA 3.7 01:10:18 10° NNE 01:15:05 75° ESE 01:15:28 70° SSE
USA 234 3.9 01:12:23 10° ENE 01:18:31 41° SE 01:20:19 35° SSE
NPP 3.5 01:13:29 10° NNE 01:18:55 85° WNW 01:19:47 64° SSW
DELTA 2 R/B (1) 4.3 01:24:37 36° SSE 01:24:37 36° SSE 01:28:34 10° ESE
Milstar 3 4.4 01:24:46 18° SSE 01:24:46 18° SSE 01:29:06 10° SE
Helios 1B rocket 2.9 01:20:23 10° N 01:23:58 49° NW 01:23:58 49° NW
Cosmos 2369 Rocket 4.0 01:23:06 15° SE 01:26:05 23° ESE 01:30:26 10° NE
UNK 4.3 01:31:04 42° WNW 01:31:04 42° WNW 01:34:52 10° NNW
Cosmos 990 Rocket 4.1 01:33:48 53° WSW 01:34:38 61° WNW 01:39:50 10° NNE
Cosmos 1378 3.3 01:36:33 64° E 01:36:34 64° E 01:40:14 10° NNE
Cosmos 2297 3.8 01:36:46 44° S 01:38:35 72° ESE 01:44:17 10° NNE
X-37B 2.3 01:41:18 28° ESE 01:41:18 28° ESE 01:43:01 10° E
Gbstr 26 Del rocket 4.3 01:36:15 21° W 01:40:16 52° N 01:45:14 10° ENE
ARGOS Delta rocket 3.6 01:37:23 10° NNE 01:41:49 80° ESE 01:42:43 55° S
Cosmos 2084 3.3 01:47:50 63° W 01:48:20 72° NW 01:52:36 10° NE
Resurs 1-4 Rocket 2.8 01:46:32 10° N 01:51:20 37° WNW 01:52:30 33° W
Sich 1 Rocket 3.8 01:46:53 10° N 01:51:31 75° E 01:53:55 28° SSE
Cosmos 1937 Rocket 3.4 01:50:18 48° SW 01:51:40 72° WNW 01:56:49 10° NNE
Cosmos 2242 Rocket 4.2 01:53:19 39° W 01:53:31 39° WNW 01:57:40 10° N
USA 308 4.5 01:50:14 10° NW 01:54:12 35° NNE 01:58:10 10° E
Cosmos 858 Rocket 4.5 01:54:32 45° SW 01:56:03 69° WNW 02:01:16 10° NNE
DELTA 2 DEB (DPAF) 4.3 01:57:25 49° WSW 01:57:47 50° W 02:02:09 10° NNW
Cosmos 1733 3.9 01:54:25 10° N 01:58:07 50° ENE 02:00:34 19° SSE
Cosmos 1766 4.2 01:56:23 10° N 02:00:16 47° ENE 02:03:48 12° SSE
Cosmos 1898 Rocket 4.0 01:59:46 36° WSW 02:01:18 45° WNW 02:06:24 10° NNE
ARIANE 5 R/B 3.5 01:56:48 10° NNE 02:01:50 45° E 02:05:54 15° SSE
IKONOS-2 4.4 02:00:54 42° S 02:02:14 71° WSW 02:06:32 10° NNW
SL-08 R/B 4.0 02:00:38 10° SSE 02:05:23 56° ENE 02:10:06 10° N
OE (NEXTSAT) 4.1 02:05:33 74° SSW 02:05:43 77° S 02:09:11 10° E
Cosmos 372 Rocket 3.9 02:05:10 35° SSW 02:07:22 89° ESE 02:12:31 10° NNE
CZ-2D R/B 3.4 02:08:16 10° N 02:12:50 28° WNW 02:14:41 23° W
CZ-4C R/B 3.7 02:13:25 36° SSW 02:14:55 55° W 02:19:17 10° NNW
Okean 3 3.9 02:15:08 38° WSW 02:16:10 47° WNW 02:20:21 10° N
NOSS 3-4 (A) 4.0 02:10:33 10° NW 02:17:22 51° WSW 02:24:53 10° SSE
NOSS 3-4 (C) 4.0 02:10:39 10° NW 02:17:29 52° WSW 02:25:00 10° SSE
Cosmos 1805 3.1 02:14:30 10° NNW 02:18:25 72° W 02:20:14 30° S
IRS-P3 4.2 02:13:09 10° NNE 02:18:33 80° ESE 02:22:19 20° S
CZ-4C R/B 3.6 02:12:20 10° NW 02:18:56 35° WSW 02:26:17 10° S
CBERS-1 4.1 02:14:39 10° N 02:19:43 62° WNW 02:22:13 29° SW
ADEOS II 2.6 02:15:06 10° N 02:20:05 45° WNW 02:22:19 29° WSW
Cosmos 2082 Rocket 3.5 02:16:21 10° NW 02:19:47 20° W 02:19:47 20° W
SL-16 R/B 3.7 02:21:33 21° W 02:22:16 22° W 02:26:58 10° NW
CZ-3B R/B 4.2 02:08:18 21° SW 02:22:37 67° SE 02:27:52 10° ENE
Cosmos 2298 Rocket 4.4 02:19:33 18° S 02:23:24 60° ESE 02:28:38 10° NNE
Meteor 1-28 Rocket 3.9 02:26:37 32° W 02:26:40 32° W 02:30:02 10° NNW
BREEZE-M R/B 4.3 02:25:02 10° WNW 02:29:41 74° NNE 02:40:08 10° E
Cosmos 1300 Rocket 3.8 02:26:16 10° NNW 02:30:36 51° W 02:33:04 23° SSW
SL-4 R/B 4.4 02:34:17 13° S 02:34:17 13° S 02:34:56 10° S
ATLAS 2AS CENTAUR R/B 2.7 02:24:31 10° NW 02:31:46 64° WSW 02:38:27 10° SSE
IRS-1D 4.2 02:27:25 10° N 02:32:16 41° WNW 02:34:54 24° WSW
ADEOS Rocket 3.5 02:28:40 13° S 02:34:16 51° W 02:41:18 10° NNW
CZ-4B R/B 3.3 02:30:22 10° NNE 02:35:10 84° WNW 02:38:45 18° SSW
Cosmos 1943 Rocket 2.4 02:33:30 24° SW 02:36:50 58° WNW 02:42:25 10° NNE
Cosmos 1125 Rocket 4.0 02:33:08 12° S 02:37:54 58° ESE 02:43:04 10° NNE
Cosmos 2151 Rocket 3.6 02:34:39 10° NNW 02:39:10 67° W 02:43:39 10° S
IDEFIX/ARIANE 42P 2.7 02:34:31 10° N 02:39:39 58° WNW 02:43:11 20° SW
DNEPR-1 R/B 4.2 02:35:56 20° SSW 02:40:20 80° SE 02:45:29 10° NE
Okean 2 Rocket 3.3 02:38:47 10° NNW 02:43:02 46° W 02:46:13 16° SSW
USA 305 3.7 02:40:57 10° NW 02:45:11 54° NNE 02:49:23 10° ESE
Cosmos 2278 Rocket 4.3 02:44:04 10° WNW 02:47:09 15° NW 02:50:14 10° N
Cosmos 1400 Rocket 3.3 02:46:30 10° N 02:50:37 67° ENE 02:54:43 10° SSE
Cosmos 1153 Rocket 4.5 02:45:27 10° NNW 02:51:44 75° W 02:58:03 10° S
Cosmos 2263 4.3 02:46:56 13° SSW 02:52:03 79° ESE 02:57:51 10° NNE
IRAS Rocket 4.5 02:48:49 10° SSE 02:54:18 76° ENE 02:59:53 10° NNW
Cosmos 2221 Rocket 4.2 02:51:52 20° SW 02:54:35 40° WNW 02:58:53 10° N
RESURS DK-1 4.1 02:52:10 10° NNW 02:56:05 38° NE 02:59:58 10° SE
Cosmos 44 3.4 02:50:40 10° NW 02:56:08 77° SW 03:01:24 10° SSE
CZ-2C R/B 3.0 02:51:32 10° NNE 02:56:18 59° E 03:01:12 10° S
Cosmos 2344 4.4 02:47:27 10° NW 02:56:48 88° SW 03:09:57 10° SE
Cosmos 1842 3.2 02:56:24 13° SSW 02:59:45 67° W 03:03:37 10° N
Cosmos 1900 4.4 02:56:49 17° SW 03:00:47 72° NW 03:05:54 10° NNE
Cosmos 2150 Rocket 4.1 02:56:23 13° SSW 03:01:12 73° WNW 03:06:37 10° NNE
Okean 1 Rocket 3.0 02:57:11 10° N 03:01:40 81° W 03:06:06 10° S
USA 234 3.4 02:55:16 10° NE 03:01:48 71° NNW 03:07:40 13° WSW
USA 306 3.3 02:58:59 10° NW 03:03:17 66° NNE 03:07:33 10° ESE
SL-27 R/B 2.5 03:00:17 10° NNW 03:03:36 75° ENE 03:06:53 10° SSE
MSX 4.1 02:59:45 10° N 03:05:20 52° WNW 03:10:44 11° SW
Meteor 2-20 Rocket 4.5 03:00:40 10° S 03:06:48 85° W 03:13:01 10° N
Cosmos 2369 Rocket 2.4 03:04:53 14° SW 03:09:41 59° WNW 03:15:15 10° NNE
Cosmos 1833 4.2 03:04:20 10° NNW 03:10:05 82° WSW 03:15:50 10° SSE
CREW DRAGON DEMO-1 DEB 4.3 03:09:02 10° NW 03:11:30 31° N 03:13:59 10° ENE
Cosmos 1802 Rocket 4.2 03:05:14 10° N 03:11:31 75° E 03:17:40 10° SSE
X-37B 0.7 03:13:35 13° W 03:16:23 60° S 03:19:31 10° ESE
Cosmos 1378 Rocket 3.9 03:15:06 10° SSW 03:19:21 47° WNW 03:23:36 10° N
USA 307 3.1 03:17:26 10° WNW 03:21:46 80° NNE 03:26:04 10° ESE
CZ-2C R/B 2.7 03:21:27 10° N 03:25:15 67° WNW 03:29:05 10° SSW
Cosmos 1607 4.4 03:19:15 10° SSW 03:25:37 67° ESE 03:32:04 10° NE
Cosmos 1953 3.6 03:23:07 10° N 03:26:57 45° ENE 03:30:45 10° SSE
Cosmos 1484 Rocket 4.0 03:23:36 10° NNE 03:27:28 46° E 03:31:20 10° S
Gbstr 26 Del rocket 4.0 03:22:28 10° WNW 03:27:56 55° NNE 03:32:22 10° E
Cosmos 2016 Rocket 4.1 03:24:49 10° N 03:31:14 88° E 03:37:32 10° S
FENGYUN 3A 3.9 03:25:52 10° NNE 03:31:17 75° ESE 03:36:38 10° S
Cosmos 1818 3.8 03:26:38 10° NW 03:31:56 50° WSW 03:37:10 10° SSE
COSMOS 2487 3.9 03:31:08 10° N 03:34:23 41° ENE 03:37:36 10° SE
USA 308 2.9 03:30:15 10° WNW 03:34:34 86° SSW 03:38:51 10° SE
Cosmos 1656 Rocket 3.9 03:31:53 10° SW 03:37:11 55° WNW 03:42:35 10° NNE
Cosmos 2100 Rocket 4.1 03:31:21 10° NNW 03:37:22 54° W 03:43:24 10° SSW
Okean 2 4.2 03:36:42 10° SW 03:40:30 35° WNW 03:44:21 10° N
ARIANE 5 R/B 3.7 03:36:19 10° N 03:40:43 28° WNW 03:45:04 10° WSW
